Home   Weather   Odder Kommune   Past weeks
Flag for Denmark

Past Weather in Odder Kommune, Denmark — Yesterday and Last 2 Weeks

Now
64 °F

Broken clouds.


Feels Like: 64 °F
Forecast: 65 / 56 °F
Wind: 3 mph from South

Location: Tirstrup

Current Time: Jul 13, 2020 at 8:49:07 pm

Latest Report: Jul 13, 2020 at 8:20 pm


Visibility: N/A

Pressure: 30.07 "Hg

Humidity: 64%

Dew Point: 52 °F

Location of Odder KommuneLocation

Past Weather in Odder Kommune — Graph

°F

Odder Kommune Temperature Yesterday

Maximum temperature yesterday: 64 °F (at 2:20 pm)
Minimum temperature yesterday: 52 °F (at 12:20 am)
Average temperature yesterday: 58 °F

High & Low Weather Summary for the Past Weeks

 TemperatureHumidityPressure
High72 °F (Jun 29, 11:20 am)100% (Jun 30, 5:20 am)30.24 "Hg (Jun 30, 5:20 am)
Low43 °F (Jul 10, 5:20 am)43% (Jul 2, 12:50 pm)29.42 "Hg (Jul 5, 10:50 am)
Average59 °F76%29.80 "Hg
* Reported Jun 28 7:20 pm — Jul 13 7:20 pm, Odder Kommune. Weather by CustomWeather, © 2020

Note: Actual official high and low records may vary slightly from our data, if they occured in-between our weather recording intervals... More about our weather records

Odder Kommune Weather History for the Previous 24 Hours

Scroll right to see more
 ConditionsComfort  
Time TempWeatherWind HumidityBarometerVisibility
7:20 pm
Mon, Jul 13
66 °FScattered clouds.5 mph60%30.09 "HgN/A
6:50 pm66 °FPassing clouds.6 mph60%30.09 "HgN/A
6:20 pm68 °FScattered clouds.7 mph49%30.09 "HgN/A
5:50 pm68 °FPassing clouds.7 mph49%30.09 "HgN/A
5:20 pm68 °FPartly sunny.8 mph49%30.12 "HgN/A
4:50 pm66 °FPartly sunny.7 mph56%30.12 "HgN/A
4:20 pm66 °FPartly sunny.6 mph56%30.12 "HgN/A
3:50 pm66 °FPartly sunny.8 mph56%30.15 "HgN/A
3:20 pm66 °FPartly sunny.8 mph52%30.15 "HgN/A
2:50 pm64 °FPartly sunny.8 mph60%30.15 "HgN/A
2:20 pm64 °FPartly sunny.8 mph60%30.15 "HgN/A
1:50 pm64 °FPartly sunny.7 mph60%30.15 "HgN/A
1:20 pm63 °FPartly sunny.6 mph64%30.18 "HgN/A
12:50 pm63 °FPartly sunny.9 mph59%30.18 "HgN/A
12:20 pm61 °FOvercast.10 mph68%30.18 "HgN/A
11:50 am61 °FOvercast.8 mph68%30.18 "HgN/A
11:20 am61 °FOvercast.9 mph68%30.18 "HgN/A
10:50 am61 °FPartly sunny.9 mph68%30.18 "HgN/A
10:20 am59 °FPartly sunny.12 mph72%30.21 "HgN/A
9:50 am59 °FPartly sunny.9 mph72%30.21 "HgN/A
9:20 am59 °FPartly sunny.7 mph72%30.21 "HgN/A
8:50 am57 °FPartly sunny.8 mph82%30.21 "HgN/A
8:20 am55 °FOvercast.7 mph88%30.21 "HgN/A
7:50 am55 °FOvercast.7 mph88%30.21 "HgN/A
7:20 am55 °FOvercast.7 mph88%30.21 "HgN/A
6:50 am55 °FOvercast.6 mph88%30.21 "HgN/A
6:20 am54 °FOvercast.5 mph94%30.21 "HgN/A
5:50 am54 °FOvercast.6 mph94%30.21 "HgN/A
5:20 am54 °FOvercast.8 mph94%30.21 "HgN/A
4:50 am54 °FPartly sunny.8 mph94%30.21 "HgN/A
4:20 am52 °FPassing clouds.9 mph94%30.21 "HgN/A
3:50 am52 °FPassing clouds.8 mph94%30.21 "HgN/A
3:20 am52 °FPassing clouds.9 mph94%30.21 "HgN/A
2:50 am52 °FCool.9 mph94%30.21 "HgN/A
1:50 am54 °FCool.10 mph88%30.21 "HgN/A
1:20 am54 °FCool.8 mph88%30.21 "HgN/A
12:50 am54 °FCool.9 mph88%30.24 "HgN/A
12:20 am54 °FCool.10 mph88%30.24 "HgN/A
11:50 pm
Sun, Jul 12
54 °FCool.8 mph88%30.24 "HgN/A
11:20 pm55 °FCool.9 mph82%30.24 "HgN/A
10:50 pm55 °FPassing clouds.12 mph82%30.24 "HgN/A
10:20 pm57 °FPassing clouds.9 mph77%30.24 "HgN/A
9:50 pm59 °FPartly sunny.8 mph72%30.24 "HgN/A
9:20 pm59 °FPartly sunny.12 mph72%30.24 "HgN/A
8:50 pm59 °FOvercast.15 mph77%30.24 "HgN/A
8:20 pm59 °FOvercast.12 mph77%30.24 "HgN/A
Weather by CustomWeather, © 2020

See weather overview